Find OneWeb SL0695

NORAD ID: 61602 Int'l Des: 2024-188 Owner: ONEWEBE Country: UK Constellation: oneweb operational
LEOCIRCULARPOLARONEWEB_TYPE

Live Position

Loading 3D Globe...

About OneWeb SL0695

Description loading...

Upcoming Passes

Passes for default location (London). Set your location on the main map for personalized predictions.

Altitude History

Loading altitude history...

Two-Line Element Set

1 61602U 24188J 26124.47442562 .00000006 00000-0 -20112-4 0 9994
2 61602 87.8923 29.7699 0001300 73.6542 286.4729 13.11419590 78734
Epoch: May 4, 2026 • Age: 6 hours

Current Status

Altitude 1220.4 km
Velocity 7.24 km/s
Sub-Earth Point 3.86°N, 80.34°E
Launch Date Oct 20, 2024
Age 1.5 years
Type internet

Technical Details

Classification Payload
Mass 148.00 kg
Dry Mass 140.00 kg
Total Mass 148.00 kg
Length 1.30 m
Diameter 1.00 m
Span 5.00 m
Shape Trapezoid+2 pan
Manufacturer ONEWUS
Bus Type ARROW
Phase Status In Orbit
Owner/State ONEWEBE/UK

Most Searched